Regional Weather Roundup
Issued by NWS

Home | Current Version | Previous Version | Text Only | Print | Product List | Glossary Off
Versions: 1 2 3 4 5 6 7 8 9 10 11 12 13 14 15 16 17 18 19 20 21 22 23 24 25 26 27 28 29 30 31 32 33 34 35 36 37 38 39 40 41 42 43 44 45 46 47 48

000
ASUS43 KMPX 140210
RWRMN
WEATHER ROUNDUP FOR MINNESOTA
NATIONAL WEATHER SERVICE TWIN CITIES/CHANHASSEN MN
900 PM CDT THU AUG 13 2020


NOTE: "FAIR" INDICATES FEW OR NO CLOUDS BELOW 12,000 FEET WITH NO
SIGNIFICANT WEATHER AND/OR OBSTRUCTIONS TO VISIBILITY. N/A MEANS
CURRENT SKY AND/OR WEATHER CONDITIONS ARE NOT AVAILABLE.

MNZ060>063-068>070-140300-
   Twin Cities Metro

CITY           SKY/WX    TMP DP  RH WIND       PRES   REMARKS
TWIN CITIES    PTCLDY    80  72  76 SE9       29.97R
ST PAUL        CLEAR     79  71  76 SE6       29.97R
CRYSTAL        CLEAR     81  71  71 S10       29.95R
BLAINE         PTCLDY    82  72  69 S8        29.97R
LAKEVILLE      CLEAR     77  66  69 CALM      29.98R
EDEN PRAIRIE   CLEAR     79  71  76 SE8       29.96R
SOUTH ST PAUL  CLEAR     80  71  73 SE5       29.97R
LAKE ELMO      FAIR      77  70  78 SE5       30.00R
$$
MNZ001>005-007-008-013>017-022>024-027-028-140300-
   Northwest Minnesota

CITY           SKY/WX    TMP DP  RH WIND       PRES   REMARKS
BEMIDJI        CLOUDY    76  73  90 SE13G18   29.87F
HALLOCK        CLOUDY    75  73  94 NW7       29.84R
ROSEAU         CLOUDY    75 N/A N/A SE9       29.86S
WARROAD        LGT RAIN  75  72  88 SE10      29.87S
THIEF RVR FALL HVY RAIN  72  66  83 SE16G30   29.85R
CROOKSTON      CLOUDY    79  75  89 CALM      29.79F THUNDER
FOSSTON        TSTM      73  70  88 SE7       29.84S
DETROIT LAKES    N/A     81  72  74 S13G20    29.85F
MOORHEAD       MOCLDY    84  72  65 S10       29.79S
PARK RAPIDS    CLOUDY    79  72  79 SE12      29.88F
MAHNOMEN       TSTM      78  74  89 SE10      29.81F
$$
MNZ006-009>011-018-025>026-140300-
   North Central Minnesota

CITY           SKY/WX    TMP DP  RH WIND       PRES   REMARKS
BAUDETTE       CLOUDY    72  70  93 SE10      29.88F
FLAG ISLAND      N/A     73  66  78 SE9       29.85S
INTL FALLS     MOCLDY    72  67  84 SE13      29.92F
WASKISH          N/A     73  70  88 SE7       29.87F
BIG FORK       MOCLDY    72  68  88 SE5       29.99R
LONGVILLE      PTCLDY    75  72  88 SE7       29.92F
GRAND RAPIDS   PTCLDY    73  71  93 SE7       29.97S
CRANE LAKE     MOCLDY    70  64  83 CALM      29.99F
ORR            PTCLDY    70  64  83 SE7       29.95S
COOK           PTCLDY    70  64  83 E5        29.98S
WALKER         MOCLDY    76  73  93 SE6       29.90S
$$
MNZ012-019>021-037-140300-
   Northeast Minnesota

CITY           SKY/WX    TMP DP  RH WIND       PRES   REMARKS
DULUTH         PTCLDY    68  64  87 E8        30.01R
ELY            CLOUDY    72  59  64 E6        30.03R
HIBBING        PTCLDY    69  66  90 SE12      29.98F
EVELETH        CLOUDY    70  65  84 CALM      30.02S
DULUTH HARBOR  MOCLDY    66  63  88 NE9       30.00R
SILVER BAY       N/A     68  59  73 NE3       30.03R
GRAND MARAIS     N/A     69  58  67 CALM      30.04S
G MARAIS ARPRT CLOUDY    66  55  68 E3        30.10R
$$
MNZ029>031-032-039>041-046>048-054>057-064-140300-
   West Central Minnesota

CITY           SKY/WX    TMP DP  RH WIND       PRES   REMARKS
FERGUS FALLS   PTCLDY    81  72  74 S13       29.83F
WHEATON        CLEAR     81  70  69 SE10      29.86R
MORRIS         CLEAR     77  72  83 S8        29.89S
ALEXANDRIA     PTCLDY    79  72  79 S10       29.92S
ELBOW LAKE     FAIR      78  73  84 S13       29.87S
WADENA         CLOUDY    79  72  78 SE7       29.90S
GLENWOOD         N/A     79  72  78 S9        29.93R
APPLETON       CLEAR     81  70  69 S7        29.88S
BENSON         CLEAR     79  72  78 S7        29.91R
ORTONVILLE     PTCLDY    81  72  74 S10       29.87R
MADISON        CLEAR     79  73  83 SE6       29.90R
WILLMAR        FAIR      79  72  78 SE5       29.96R
$$
MNZ033>034-036-042>043-049>051-058-059-140300-
   Central Minnesota

CITY           SKY/WX    TMP DP  RH WIND       PRES   REMARKS
ST CLOUD       PTCLDY    77  72  84 SE7       29.95R
SAUK CENTRE    FAIR      75  72  88 SE7       29.94R
PAYNESVILLE    CLEAR     79  74  85 SE5       29.95R
AITKIN         MOCLDY    73  68  83 E5        29.94S
PINE RIVER     MOCLDY    77  72  83 SE8       29.96S
BRAINERD       PTCLDY    81  72  74 SE8       29.93S
STAPLES        PTCLDY    79  70  73 SE7       29.91S
LONG PRAIRIE   FAIR      75  70  83 S7        29.94R
LITTLE FALLS   CLEAR     77  72  83 SE5       29.94R
CAMP RIPLEY    FAIR      78  74  88 SE7       29.94R
LITCHFIELD     CLEAR     81  73  78 SE6       29.95R
BUFFALO        CLEAR     78  70  75 MISG      29.97R
MAPLE LAKE       N/A     78  74  86 CALM      29.97R
HUTCHINSON     MOCLDY    79  74  84 SE5       29.96R
$$
MNZ037-044-045-052-053-140300-
   East Central Minnesota

CITY           SKY/WX    TMP DP  RH WIND       PRES   REMARKS
PRINCETON      CLEAR     79  72  78 CALM      29.96R
MORA           MOCLDY    75  70  83 SE3       29.99R
CAMBRIDGE      PTCLDY    81  68  65 SE5       29.97R
RUSH CITY      PTCLDY    76  70  82 SE5       29.98R
MOOSE LAKE     MOCLDY    72  68  88 NE6       29.97R
HINCKLEY       FAIR      79  73  83 SE3       29.98R
CLOQUET        PTCLDY    66  63  88 CALM      30.00R
MCGREGOR       MOCLDY    77  72  83 E5        29.98R
$$
MNZ071>073-080-081-089-090-097-098-140300-
   Southwest Minnesota

CITY           SKY/WX    TMP DP  RH WIND       PRES   REMARKS
MONTEVIDEO     CLEAR     81  70  69 S5        29.91R
GRANITE FALLS  CLEAR     79  74  86 SE6       29.93R
CANBY          CLEAR     81  70  70 S6        29.91R
MARSHALL         N/A    N/A N/A N/A MISG        N/A
REDWOOD FALLS  CLEAR     78  70  76 S10       29.92R
OLIVIA         CLEAR     77  72  83 SE7       29.92R
PIPESTONE        N/A     79  70  73 S10       29.95R
WINDOM         CLEAR     79  70  73 SE8       29.96R
WORTHINGTON    CLEAR     77  71  82 S8        29.97R
JACKSON        CLEAR     77  70  78 SE7       29.98R
TRACY          CLEAR     79  70  73 S6        29.94R
SLAYTON        CLEAR     76  65  68 S7        29.96R
$$
MNZ065>067-074>077-082>085-091>093-140300-
   South Central Minnesota

CITY           SKY/WX    TMP DP  RH WIND       PRES   REMARKS
MANKATO        CLEAR     79  74  84 S10       29.97R
NEW ULM        CLEAR     79  72  78 SE8       29.95R
ST JAMES         N/A     79  72  78 SE8       29.95R
FAIRMONT       CLEAR     79  72  79 S14       29.97R
GLENCOE        CLEAR     78  74  86 SE5       29.95R
FARIBAULT      CLEAR     79  72  78 SE6       29.99R
OWATONNA       CLEAR     79  72  78 SE8       29.99R
ALBERT LEA     CLEAR     77  72  83 SE8       30.00R
$$
MNZ078>079-086>088-094>096-140300-
   Southeast Minnesota

CITY           SKY/WX    TMP DP  RH WIND       PRES   REMARKS
ROCHESTER      CLEAR     75  70  84 SE9       30.02S
RED WING       CLOUDY    81  72  74 SE8       29.98R
STANTON        CLEAR     79  70  74 SE6       29.97R
DODGE CENTER   CLEAR     73  68  83 SE6       30.02R
WINONA         CLEAR     79  70  73 S5        30.02R
AUSTIN         CLEAR     77  72  83 SE7       30.02S
PRESTON        CLEAR     75  68  79 SE9       30.04S
$$
ABBREVIATIONS USED IN REMARKS
   TC - TEMPERATURES IN CELSIUS
  WCI - WIND CHILL INDEX
   HX - HEAT INDEX
  VSB - VISIBILITY
$$



USA.gov is the U.S. government's official web portal to all federal, state and local government web resources and services.